Location: Boncourt
(49.6160°N, 3.9448°E)
Time: 20:42:20
(UTC+00:00)

Daily predictions for brighter satellites

Satellite Brightness Start Highest point End
(mag) Time Altitude Azimuth Time Altitude Azimuth Time Altitude Azimuth
GEOS 3 Rocket 4.3 16:58:14 10° E 17:03:10 39° NE 17:08:09 10° NNW
Cosmos 1850 Rocket 4.1 17:01:28 10° NNW 17:06:48 83° ENE 17:12:08 10° SSE
Cosmos 2297 Rocket 3.1 17:03:50 10° NNW 17:08:47 30° NE 17:13:43 10° ESE
Cosmos 2369 Rocket 3.1 17:03:34 10° SW 17:09:06 52° NW 17:14:43 10° NNE
Cosmos 1939 Rocket 3.5 17:07:27 10° SE 17:11:04 34° ENE 17:14:39 10° N
COSMO-SKYMED 1 3.5 17:09:34 10° NE 17:13:19 27° E 17:17:02 10° SSE
NOAA 12 4.3 17:08:56 10° SSE 17:14:13 83° WSW 17:19:35 10° NNW
Cosmos 304 Rocket 4.0 17:10:37 10° SSW 17:15:23 79° WNW 17:20:13 10° NNE
FALCON 9 DEB 3.4 17:12:34 10° W 17:15:58 60° NNW 17:19:22 10° ENE
Cosmos 1689 Rocket 3.5 17:13:58 10° NE 17:16:09 19° E 17:18:18 10° SE
Cosmos 1452 Rocket 3.5 17:11:22 10° SSW 17:16:36 79° ESE 17:21:55 10° NNE
Okean O Rocket 2.0 17:13:31 10° S 17:17:53 68° WSW 17:22:15 10° NNW
Aureole 3 Rocket 4.4 17:16:09 10° SE 17:19:02 20° E 17:22:34 10° NNE
H-2A R/B 2.8 17:16:50 10° N 17:20:58 55° WNW 17:24:59 10° SSW
Cosmos 1328 3.7 17:17:07 10° N 17:21:05 83° E 17:25:02 10° SSE
H-2A R/B 3.2 17:16:53 10° ESE 17:21:06 24° ENE 17:25:22 10° N
Cosmos 2098 Rocket 3.9 17:19:54 10° NNW 17:22:59 38° W 17:25:45 10° SSW
ADEOS Rocket 3.6 17:18:51 10° N 17:25:01 70° WNW 17:31:51 10° SSW
Cosmos 1340 3.8 17:22:24 10° NNE 17:25:26 22° ENE 17:28:28 10° ESE
IRS-1C Rocket 4.2 17:20:55 10° SSE 17:26:04 58° ENE 17:31:16 10° N
NOSS 2-1 (E) 4.0 17:22:58 10° WSW 17:26:11 43° NW 17:29:50 10° NE
Cosmos 1356 Rocket 3.8 17:22:49 10° SSW 17:27:05 72° WNW 17:31:24 10° N
Cosmos 1825 Rocket 3.6 17:22:56 10° N 17:27:23 66° ENE 17:31:48 10° SSE
ERS-2 2.1 17:24:36 10° NNE 17:28:15 85° ESE 17:31:54 10° SSW
CZ-4 R/B 2.1 17:25:21 10° SE 17:28:47 30° ENE 17:32:13 10° N
BREEZE-M DEB (TANK) 4.0 17:27:11 10° WSW 17:30:43 83° NNW 17:42:44 12° ENE
YAOGAN 1 3.3 17:28:47 10° SE 17:32:37 32° ENE 17:36:27 10° N
USA 281 4.2 17:27:09 10° S 17:33:31 52° WSW 17:39:56 10° NW
Lacrosse 5 2.6 17:29:17 10° W 17:34:11 47° NNW 17:38:57 11° NE
Cosmos 2219 3.6 17:28:57 10° NNW 17:34:27 43° NE 17:39:55 10° ESE
Meteor 2-21 Rocket 4.4 17:28:49 10° N 17:35:02 69° ENE 17:41:08 10° SSE
ERBS 3.6 17:32:05 10° W 17:35:10 33° NNW 17:38:04 11° NE
CZ-4B R/B 1.4 17:36:20 10° N 17:39:38 76° WNW 17:42:49 10° SSW
SAR-Lupe-4 3.5 17:36:31 10° NNE 17:40:06 63° ESE 17:43:40 10° S
Cosmos 1400 Rocket 3.7 17:39:21 10° SSE 17:42:55 29° E 17:46:27 10° NNE
USA 305 3.5 17:39:43 10° WNW 17:43:54 47° N 17:46:51 18° ENE
Cosmos 44 3.9 17:40:25 10° S 17:44:24 32° ESE 17:47:38 15° ENE
Cosmos 1758 Rocket 4.0 17:40:16 10° NNW 17:44:40 66° W 17:49:00 10° S
Okean-O 2.7 17:41:32 10° SE 17:45:51 53° ENE 17:50:11 10° N
Cosmos 1726 Rocket 3.6 17:41:39 10° S 17:45:52 53° E 17:50:10 10° NNE
CZ-4C R/B 4.0 17:41:48 10° NW 17:46:46 24° N 17:52:05 11° NE
NOSS 2-2 (E) 4.4 17:44:10 10° NW 17:49:33 75° NE 17:57:06 10° SE
USA 306 3.4 17:45:59 10° WNW 17:50:09 48° N 17:52:49 20° ENE
Cosmos 1745 Rocket 4.5 17:47:26 10° N 17:53:14 38° ENE 17:59:04 10° SE
Cosmos 1818 4.4 17:49:31 10° WSW 17:54:47 49° NW 18:00:06 10° NNE
Cosmos 1943 Rocket 4.3 17:50:46 10° W 17:54:55 21° NW 17:59:04 10° N
SAR-Lupe-1 4.0 17:54:12 10° NNE 17:57:49 86° WNW 18:01:25 10° SSW
Aureole 3 3.1 17:55:35 10° SSE 17:58:39 38° E 18:00:41 16° NNE
Cosmos 1331 Rocket 3.9 17:55:06 10° SSW 18:00:14 75° ESE 18:05:25 10° NNE
Cosmos 1606 Rocket 3.5 17:55:54 10° S 18:00:15 88° W 18:04:42 10° N
SKYMED 2 3.5 17:57:14 10° NNE 18:01:36 80° ESE 18:05:57 10° S
Cosmos 2228 3.1 18:00:20 10° SSW 18:04:34 76° WNW 18:08:51 10° N
GENESIS II 4.3 18:00:47 10° SSW 18:04:45 57° SE 18:07:02 24° NE
ATLAS 5 CENTAUR R/B 3.5 18:01:23 10° W 18:05:01 25° NNW 18:09:07 10° NNE
Cosmos 1244 Rocket 4.4 17:59:22 10° N 18:05:36 81° E 18:11:51 10° SSE
SL-4 R/B 1.9 18:02:50 10° W 18:06:23 65° N 18:08:01 30° ENE
NOSS 2-2 (D) 4.4 18:01:06 10° NW 18:06:26 80° NE 18:13:51 10° SE
FALCON 9 DEB 4.4 18:04:45 10° SSW 18:07:15 23° SE 18:07:15 23° SE
CZ-2C R/B 3.2 18:02:53 10° SSE 18:08:39 69° ENE 18:14:18 10° N
Cosmos 292 Rocket 3.7 18:04:38 10° SSW 18:09:24 69° ESE 18:14:13 10° NNE
Cosmos 1346 Rocket 3.3 18:08:27 10° N 18:12:10 36° ENE 18:12:50 33° E
Cosmos 2227 Rocket 2.2 18:07:13 10° NNW 18:12:50 61° ENE 18:17:08 17° SE
ARGOS 3.5 18:09:09 14° SE 18:13:31 43° ENE 18:18:38 10° N
FALCON 9 DEB 4.3 18:12:38 10° SSW 18:15:00 25° SSE 18:15:00 25° SSE
Meteor 2-10 Rocket 4.0 18:11:23 10° SSE 18:16:15 37° E 18:20:59 10° NNE
Cosmos 1892 2.7 18:13:07 10° N 18:16:57 54° ENE 18:19:18 21° SSE
SeaSat 1 2.5 18:14:54 22° SE 18:17:58 57° NE 18:22:50 10° NNW
CZ-2D R/B 3.9 18:16:34 10° S 18:20:20 57° W 18:24:07 10° NNW
USA 215 3.4 18:17:28 25° E 18:21:19 60° NNE 18:27:44 10° WNW
Cosmos 1656 3.9 18:17:54 10° S 18:23:08 44° ESE 18:26:21 22° NE
Cosmos 2263 Rocket 3.6 18:19:24 10° N 18:23:31 20° NE 18:24:14 19° NE
Cosmos 968 Rocket 3.5 18:18:38 10° NNW 18:23:51 62° ENE 18:26:57 24° SE
ATLAS 2AS CENTAUR R/B 3.7 18:17:34 10° NW 18:24:33 35° NNE 18:27:53 24° ENE
Cosmos 1110 Rocket 4.4 18:20:46 10° SW 18:25:59 65° WNW 18:31:12 10° NNE
CSL-04 Rocket 3.6 18:20:51 10° SSE 18:26:22 72° ENE 18:31:54 10° NNW
Cosmos 2058 Rocket 3.0 18:22:22 10° S 18:26:52 88° E 18:31:24 10° N
Cosmos 1302 Rocket 3.9 18:23:32 10° SSW 18:28:45 70° ESE 18:34:02 10° NNE
FALCON 9 DEB 4.3 18:27:05 10° SSW 18:29:11 28° S 18:29:11 28° S
HJ-1C 3.4 18:30:28 61° NE 18:30:28 61° NE 18:33:34 10° N
Cosmos 1486 Rocket 3.9 18:24:58 10° NNW 18:30:20 73° ENE 18:33:47 22° SSE
Cosmos 1300 3.7 18:27:35 10° SSW 18:31:17 48° WNW 18:35:01 10° N
USA 307 3.1 18:27:46 10° WNW 18:32:01 58° NNE 18:32:53 47° ENE
Cosmos 1697 Rocket 3.9 18:30:10 10° SSE 18:32:53 24° SE 18:32:53 24° SE
USA 308 3.0 18:32:32 10° WNW 18:36:47 59° NNE 18:37:27 52° ENE
Helios 1A Rocket 4.3 18:34:15 10° S 18:38:09 40° W 18:42:03 10° NNW
Cosmos 1503 Rocket 4.1 18:34:23 10° NNW 18:39:30 52° ENE 18:40:30 45° E
GEOS 3 Rocket 4.1 18:36:45 16° SSE 18:41:00 63° SW 18:46:23 10° NW
DMSP B5D1-3 4.4 18:37:10 10° NNE 18:42:20 74° ESE 18:47:29 10° S
CRYOSAT 2 4.2 18:39:01 10° N 18:43:54 72° E 18:48:45 10° S
S3M 3.8 18:38:03 10° S 18:44:04 67° E 18:50:12 10° NNE
Cosmos 1825 3.7 18:42:43 10° N 18:44:30 25° NNE 18:44:30 25° NNE
Cosmos 1354 Rocket 4.0 18:43:58 10° NNW 18:49:09 55° ENE 18:49:38 53° E
COSMO-SKYMED 1 4.1 18:45:34 10° N 18:49:33 36° WNW 18:53:31 10° SW
Cosmos 1408 3.1 18:47:49 10° N 18:50:34 49° N 18:50:34 49° N
Cosmos 2297 Rocket 2.6 18:47:39 10° NW 18:53:15 62° WSW 18:57:46 16° S
FALCON 9 DEB 4.2 18:49:58 10° WNW 18:52:39 40° NNW 18:52:39 40° NNW
Cosmos 1417 Rocket 4.5 18:50:12 10° S 18:56:27 84° W 19:02:49 10° N
Cosmos 2058 2.9 18:53:17 10° NNW 18:57:23 75° W 18:57:58 62° SSW
MOS 1 Rocket 3.2 18:53:22 10° NNE 18:57:57 86° WNW 19:02:47 10° SSW
H-2A R/B 2.5 18:54:42 10° S 19:00:03 67° WSW 19:05:31 10° NNW
Cosmos 1340 4.4 18:57:42 10° NNW 19:01:07 32° W 19:04:30 10° SSW
SL-08 RB Rocket 3.7 19:03:11 65° NNE 19:03:11 65° NNE 19:07:07 10° N
CZ-4 R/B 3.4 19:00:30 10° SSW 19:03:50 26° W 19:07:09 10° NW
Aureole 3 Rocket 4.4 19:02:18 10° SW 19:05:57 40° WNW 19:10:52 10° N
Timation 1 Rocket 4.3 19:01:57 10° NNW 19:07:56 63° NE 19:08:21 61° ENE
YAOGAN 1 4.3 19:04:50 10° SSW 19:08:42 31° W 19:12:35 10° NNW
Cosmos 1076 Rocket 3.9 19:07:25 10° NNW 19:10:59 59° NW 19:10:59 59° NW
Lacrosse 5 2.9 19:13:20 10° WNW 19:18:01 36° N 19:18:09 36° N
Ariane Rocket 3.2 19:18:51 61° N 19:18:51 61° N 19:23:10 10° NNW
Cosmos 2219 4.5 19:13:16 10° NW 19:18:34 39° WSW 19:23:21 12° S
BREEZE-M R/B 4.0 19:17:25 10° W 19:22:04 83° SSW 19:23:14 64° ESE
MetOp-A 4.3 19:24:28 62° N 19:24:28 62° N 19:29:00 10° NNW
USA 305 3.9 19:19:54 10° WNW 19:23:00 46° WNW 19:23:00 46° WNW
Cosmos 44 4.1 19:21:05 10° WSW 19:25:28 45° NW 19:26:06 43° NNW
Cosmos 2082 3.9 19:23:58 10° NNW 19:29:41 69° WSW 19:30:18 63° SSW
USA 306 4.1 19:26:08 10° WNW 19:28:58 40° WNW 19:28:58 40° WNW
CZ-4C R/B 3.5 19:30:55 10° NW 19:37:09 39° NNE 19:37:16 39° NNE
SL-4 R/B 4.4 19:42:27 10° WNW 19:43:36 19° WNW 19:43:36 19° WNW
ATLAS 5 CENTAUR R/B 4.1 19:48:08 10° NW 19:51:05 17° N 19:51:05 17° N
NOSS 3-4 (A) 3.8 19:47:23 10° NW 19:53:45 73° N 19:53:45 73° N
NOSS 3-4 (C) 3.8 19:47:29 10° NW 19:53:51 72° N 19:53:51 72° N
SeaSat 1 4.2 19:54:42 24° SW 19:55:46 26° WSW 19:59:54 10° NW
Cosmos 2227 Rocket 4.1 19:51:54 10° NW 19:56:29 26° WSW 19:59:01 19° SW
USA 215 3.4 20:04:50 65° WSW 20:04:50 65° WSW 20:10:51 10° WNW
Cosmos 2263 Rocket 3.5 20:02:43 10° NNW 20:05:56 35° NNW 20:05:56 35° NNW
ATLAS 2AS CENTAUR R/B 3.1 20:09:01 10° NW 20:15:18 63° NNW 20:15:18 63° NNW
CZ-4C R/B 4.3 21:19:19 10° NW 21:22:27 30° NW 21:22:27 30° NW
